This demonstration page uses our WeatherBlox Daily Observations layout. Learn more.

Left ArrowRight Arrow

Hourly Observations for May 6, 2022

Temp ( °F °C ) Dew Point ( °F °C ) Humidity (%) Winds ( mph kmh ) Pressure ( in mb ) Visibility ( mi km ) Precip ( " mm )
12:53 am 00:53 Mostly Cloudy 59 15 45 7.2 60 60 SW 18 30 29.48 998 10 16 0.00 0.00
1:53 am 01:53 Clear 55 12.8 43 6.1 64 64 SW 10 17 29.49 999 10 16 0.00 0.00
2:53 am 02:53 Cloudy 56 13.3 43 6.1 62 62 SW 14 22 29.49 999 10 16 0.00 0.00
3:53 am 03:53 Mostly Clear 54 12.2 42 5.6 64 64 SW 14 22 29.51 999 10 16 0.00 0.00
4:53 am 04:53 Clear 52 11.1 40 4.4 64 64 SW 14 22 29.52 1000 10 16 0.00 0.00
5:53 am 05:53 Sunny 52 11.1 39 3.9 61 61 SW 22 35 29.51 999 10 16 0.00 0.00
6:53 am 06:53 Sunny 51 10.6 37 2.8 59 59 SW 25 41 29.52 1000 10 16 0.00 0.00
7:53 am 07:53 Sunny 57 13.9 35 1.7 44 44 SW 32 52 29.53 1000 10 16 0.00 0.00
8:53 am 08:53 Sunny 61 16.1 34 1.1 36 36 SW 33 54 29.53 1000 10 16 0.00 0.00
9:53 am 09:53 Mostly Sunny 63 17.2 32 0 31 31 WSW 28 44 29.54 1000 10 16 0.00 0.00
10:53 am 10:53 Sunny 64 17.8 30 -1.1 28 28 WSW 29 46 29.54 1000 10 16 0.00 0.00
11:53 am 11:53 Partly Cloudy 70 21.1 30 -1.1 23 23 WSW 32 52 29.53 1000 10 16 0.00 0.00
12:53 pm 12:53 Mostly Cloudy 71 21.7 27 -2.8 19 19 WSW 36 57 29.51 999 10 16 0.00 0.00
1:53 pm 13:53 Mostly Cloudy 68 20 25 -3.9 20 20 WSW 28 44 29.52 1000 10 16 0.00 0.00
2:53 pm 14:53 Mostly Cloudy 71 21.7 24 -4.4 17 17 SW 31 50 29.49 999 10 16 0.00 0.00
3:53 pm 15:53 Partly Cloudy 73 22.8 25 -3.9 17 17 WSW 35 56 29.49 999 10 16 0.00 0.00
4:53 pm 16:53 Sunny 71 21.7 25 -3.9 18 18 WSW 35 56 29.49 999 10 16 0.00 0.00
5:53 pm 17:53 Mostly Sunny 72 22.2 25 -3.9 17 17 WSW 28 44 29.50 999 10 16 0.00 0.00
6:53 pm 18:53 Sunny 68 20 27 -2.8 21 21 W 30 48 29.51 999 10 16 0.00 0.00
7:53 pm 19:53 Sunny 65 18.3 29 -1.7 26 26 W 13 20 29.51 999 10 16 0.00 0.00
8:53 pm 20:53 Mostly Cloudy 60 15.6 30 -1.1 32 32 SW 8 13 29.51 999 10 16 0.00 0.00
9:53 pm 21:53 Mostly Cloudy 60 15.6 31 -0.6 33 33 SSW 10 17 29.49 999 10 16 0.00 0.00
10:53 pm 22:53 Mostly Cloudy 58 14.4 32 0 38 38 SSW 12 19 29.48 998 10 16 0.00 0.00
11:53 pm 23:53 Cloudy 57 13.9 34 1.1 42 42 SW 13 20 29.48 998 10 16 0.00 0.00

Powered by AerisWeather